GLO1789 SBSV-SBGL

Flight info

Callsign GLO1789
Flight time 1h 43m
Altitude 38000
Route IRUMI UN857 MOLSU
Aircraft B738/M-SDFGIKLORWXY/LB1

Departure

Time 2026-05-03 21:05
Airport Deputado Luiz Eduardo Magalhães International Airport (SBSV)

Arrival

Time 2026-05-03 22:48
Airport Rio Galeão – Tom Jobim International Airport (SBGL)
Time Latitude Longitude Altitude Speed Heading
2026-05-03 20:56 -12.91440 -38.33205 42 ft 0 kts 294°
2026-05-03 20:58 -12.91441 -38.33201 42 ft 2 kts 294°
2026-05-03 20:58 -12.91447 -38.33187 42 ft 2 kts 294°
2026-05-03 20:59 -12.91455 -38.33174 42 ft 2 kts 313°
2026-05-03 20:59 -12.91466 -38.33164 42 ft 2 kts 329°
2026-05-03 20:59 -12.91480 -38.33158 42 ft 2 kts 347°
2026-05-03 20:59 -12.91495 -38.33157 42 ft 2 kts
2026-05-03 21:00 -12.91506 -38.33158 42 ft 0 kts 17°
2026-05-03 21:00 -12.91510 -38.33160 42 ft 1 kts 20°
2026-05-03 21:00 -12.91512 -38.33161 42 ft 0 kts 20°
2026-05-03 21:01 -12.91509 -38.33160 42 ft 3 kts 20°
2026-05-03 21:01 -12.91468 -38.33145 42 ft 6 kts 15°
2026-05-03 21:01 -12.91417 -38.33143 42 ft 10 kts 351°
2026-05-03 21:01 -12.91334 -38.33159 41 ft 12 kts 348°
2026-05-03 21:02 -12.91254 -38.33176 41 ft 10 kts 350°
2026-05-03 21:02 -12.91213 -38.33219 41 ft 8 kts 269°
2026-05-03 21:02 -12.91222 -38.33280 41 ft 10 kts 263°
2026-05-03 21:02 -12.91207 -38.33362 41 ft 12 kts 294°
2026-05-03 21:03 -12.91164 -38.33431 41 ft 10 kts 317°
2026-05-03 21:03 -12.91102 -38.33426 41 ft 9 kts 54°
2026-05-03 21:03 -12.91083 -38.33362 41 ft 9 kts 78°
2026-05-03 21:03 -12.91072 -38.33310 41 ft 12 kts 78°
2026-05-03 21:04 -12.91017 -38.33032 40 ft 71 kts 78°
2026-05-03 21:04 -12.90876 -38.32341 44 ft 125 kts 77°
2026-05-03 21:04 -12.90670 -38.31312 60 ft 169 kts 78°
2026-05-03 21:04 -12.90391 -38.30057 408 ft 179 kts 79°
2026-05-03 21:05 -12.90095 -38.28824 1044 ft 179 kts 78°
2026-05-03 21:05 -12.89863 -38.27598 1628 ft 179 kts 83°
2026-05-03 21:05 -12.89699 -38.26294 1982 ft 190 kts 90°
2026-05-03 21:05 -12.90078 -38.24976 2248 ft 202 kts 127°
2026-05-03 21:06 -12.91251 -38.24130 2610 ft 214 kts 159°
2026-05-03 21:06 -12.92774 -38.23830 2909 ft 232 kts 169°
2026-05-03 21:06 -12.94437 -38.23636 3324 ft 243 kts 170°
2026-05-03 21:06 -12.96175 -38.23410 3708 ft 255 kts 169°
2026-05-03 21:07 -12.97946 -38.23157 4289 ft 259 kts 168°
2026-05-03 21:07 -12.99726 -38.22895 4871 ft 262 kts 168°
2026-05-03 21:07 -13.01540 -38.22625 5451 ft 265 kts 168°
2026-05-03 21:07 -13.03395 -38.22349 6071 ft 267 kts 168°
2026-05-03 21:08 -13.05235 -38.22078 6651 ft 271 kts 168°
2026-05-03 21:08 -13.07106 -38.21802 7199 ft 275 kts 168°
2026-05-03 21:08 -13.09020 -38.21518 7765 ft 279 kts 168°
2026-05-03 21:08 -13.10966 -38.21230 8316 ft 284 kts 169°
2026-05-03 21:09 -13.12959 -38.20936 8896 ft 288 kts 169°
2026-05-03 21:09 -13.14992 -38.20766 9465 ft 293 kts 176°
2026-05-03 21:09 -13.17046 -38.20815 10094 ft 296 kts 180°
2026-05-03 21:09 -13.19115 -38.20939 10519 ft 307 kts 181°
2026-05-03 21:10 -13.21330 -38.21084 10837 ft 321 kts 181°
2026-05-03 21:10 -13.23620 -38.21223 11117 ft 335 kts 180°
2026-05-03 21:10 -13.26006 -38.21359 11447 ft 347 kts 180°
2026-05-03 21:10 -13.28413 -38.21489 11994 ft 350 kts 180°
2026-05-03 21:11 -13.30879 -38.21620 12599 ft 352 kts 180°
2026-05-03 21:11 -13.33321 -38.21748 13206 ft 354 kts 180°
2026-05-03 21:11 -13.35816 -38.21879 13753 ft 358 kts 180°
2026-05-03 21:11 -13.38301 -38.22007 14309 ft 362 kts 180°
2026-05-03 21:12 -13.40847 -38.22139 14907 ft 365 kts 180°
2026-05-03 21:12 -13.43377 -38.22271 15447 ft 369 kts 180°
2026-05-03 21:12 -13.45951 -38.22405 16002 ft 372 kts 180°
2026-05-03 21:12 -13.48573 -38.22541 16565 ft 374 kts 180°
2026-05-03 21:13 -13.51210 -38.22679 17131 ft 377 kts 180°
2026-05-03 21:13 -13.53866 -38.22818 17646 ft 380 kts 180°
2026-05-03 21:13 -13.56544 -38.22958 18151 ft 384 kts 181°
2026-05-03 21:13 -13.59218 -38.23098 18639 ft 387 kts 181°
2026-05-03 21:14 -13.61953 -38.23241 19145 ft 390 kts 181°
2026-05-03 21:14 -13.64673 -38.23382 19608 ft 393 kts 181°
2026-05-03 21:14 -13.67461 -38.23525 20073 ft 397 kts 181°
2026-05-03 21:14 -13.70239 -38.23667 20488 ft 401 kts 181°
2026-05-03 21:15 -13.73058 -38.23812 20927 ft 405 kts 181°
2026-05-03 21:15 -13.75903 -38.23959 21379 ft 408 kts 181°
2026-05-03 21:15 -13.78738 -38.24105 21809 ft 411 kts 181°
2026-05-03 21:15 -13.81628 -38.24255 22221 ft 415 kts 181°
2026-05-03 21:16 -13.84506 -38.24405 22656 ft 418 kts 181°
2026-05-03 21:16 -13.87444 -38.24559 23074 ft 421 kts 181°
2026-05-03 21:16 -13.90363 -38.24712 23486 ft 424 kts 182°
2026-05-03 21:16 -13.93360 -38.24869 23882 ft 427 kts 182°
2026-05-03 21:17 -13.96365 -38.25027 24288 ft 430 kts 182°
2026-05-03 21:17 -13.98350 -38.25131 24541 ft 432 kts 182°
2026-05-03 21:17 -14.02381 -38.25341 25035 ft 437 kts 182°
2026-05-03 21:17 -14.05453 -38.25502 25440 ft 439 kts 182°
2026-05-03 21:18 -14.08506 -38.25663 25781 ft 443 kts 182°
2026-05-03 21:18 -14.11636 -38.25828 26177 ft 445 kts 183°
2026-05-03 21:18 -14.14736 -38.25991 26541 ft 447 kts 183°
2026-05-03 21:18 -14.17888 -38.26158 26894 ft 450 kts 183°
2026-05-03 21:19 -14.21028 -38.26323 27243 ft 453 kts 183°
2026-05-03 21:19 -14.24188 -38.26488 27597 ft 455 kts 183°
2026-05-03 21:19 -14.27368 -38.26656 27963 ft 457 kts 183°
2026-05-03 21:19 -14.30576 -38.26825 28306 ft 459 kts 183°
2026-05-03 21:20 -14.33790 -38.26994 28640 ft 461 kts 183°
2026-05-03 21:20 -14.37004 -38.27164 28922 ft 465 kts 184°
2026-05-03 21:20 -14.40258 -38.27336 29238 ft 467 kts 184°
2026-05-03 21:20 -14.43496 -38.27507 29554 ft 469 kts 184°
2026-05-03 21:21 -14.46782 -38.27681 29850 ft 472 kts 184°
2026-05-03 21:21 -14.50056 -38.27855 30317 ft 470 kts 184°
2026-05-03 21:21 -14.53360 -38.28029 30841 ft 467 kts 184°
2026-05-03 21:21 -14.56566 -38.28199 31264 ft 466 kts 184°
2026-05-03 21:22 -14.59855 -38.28372 31664 ft 465 kts 184°
2026-05-03 21:22 -14.63050 -38.28541 32092 ft 463 kts 184°
2026-05-03 21:22 -14.66305 -38.28711 32501 ft 462 kts 184°
2026-05-03 21:22 -14.69512 -38.28878 32898 ft 461 kts 184°
2026-05-03 21:23 -14.72722 -38.29044 33302 ft 460 kts 184°
2026-05-03 21:23 -14.75936 -38.29211 33703 ft 459 kts 184°
2026-05-03 21:23 -14.79085 -38.29375 34087 ft 457 kts 184°
2026-05-03 21:23 -14.82297 -38.29543 34454 ft 456 kts 184°
2026-05-03 21:24 -14.85474 -38.29710 34802 ft 456 kts 184°
2026-05-03 21:24 -14.88657 -38.29879 35123 ft 455 kts 184°
2026-05-03 21:24 -14.91824 -38.30047 35509 ft 453 kts 184°
2026-05-03 21:24 -14.94963 -38.30235 35852 ft 451 kts 187°
2026-05-03 21:25 -14.98085 -38.30661 36118 ft 449 kts 192°
2026-05-03 21:25 -15.01126 -38.31399 36411 ft 446 kts 198°
2026-05-03 21:25 -15.04050 -38.32394 36694 ft 444 kts 202°
2026-05-03 21:25 -15.06912 -38.33608 36958 ft 442 kts 206°
2026-05-03 21:26 -15.09718 -38.34966 37225 ft 441 kts 208°
2026-05-03 21:26 -15.12463 -38.36392 37485 ft 439 kts 209°
2026-05-03 21:26 -15.15206 -38.37866 37711 ft 439 kts 210°
2026-05-03 21:26 -15.17903 -38.39338 37907 ft 439 kts 210°
2026-05-03 21:27 -15.20587 -38.40811 38012 ft 439 kts 210°
2026-05-03 21:27 -15.23309 -38.42307 38011 ft 440 kts 210°
2026-05-03 21:27 -15.28723 -38.45274 38013 ft 437 kts 210°
2026-05-03 21:28 -15.34087 -38.48207 38011 ft 437 kts 210°
2026-05-03 21:28 -15.39473 -38.51144 38012 ft 437 kts 210°
2026-05-03 21:29 -15.44866 -38.54086 38012 ft 436 kts 210°
2026-05-03 21:29 -15.50236 -38.57017 38013 ft 435 kts 210°
2026-05-03 21:30 -15.55593 -38.59943 38017 ft 434 kts 210°
2026-05-03 21:30 -15.60971 -38.62880 38011 ft 436 kts 210°
2026-05-03 21:31 -15.66360 -38.65826 38010 ft 436 kts 210°
2026-05-03 21:31 -15.71724 -38.68760 38007 ft 435 kts 210°
2026-05-03 21:32 -15.77094 -38.71698 38011 ft 435 kts 210°
2026-05-03 21:32 -15.82470 -38.74639 38007 ft 434 kts 210°
2026-05-03 21:33 -15.87804 -38.77561 38009 ft 432 kts 210°
2026-05-03 21:33 -15.93134 -38.80483 38011 ft 432 kts 210°
2026-05-03 21:34 -15.98457 -38.83403 38009 ft 432 kts 210°
2026-05-03 21:34 -16.03751 -38.86309 38011 ft 432 kts 210°
2026-05-03 21:35 -16.09077 -38.89234 38011 ft 433 kts 211°
2026-05-03 21:35 -16.14437 -38.92179 38013 ft 432 kts 211°
2026-05-03 21:36 -16.19762 -38.95107 38017 ft 433 kts 210°
2026-05-03 21:36 -16.25103 -38.98036 38018 ft 431 kts 210°
2026-05-03 21:37 -16.30437 -39.00879 38025 ft 431 kts 209°
2026-05-03 21:37 -16.35820 -39.03716 38029 ft 432 kts 210°
2026-05-03 21:38 -16.41178 -39.06543 38029 ft 432 kts 210°
2026-05-03 21:38 -16.46525 -39.09396 38030 ft 432 kts 211°
2026-05-03 21:39 -16.51827 -39.12355 38034 ft 431 kts 211°
2026-05-03 21:39 -16.57127 -39.15356 38033 ft 429 kts 211°
2026-05-03 21:40 -16.62379 -39.18327 38033 ft 429 kts 211°
2026-05-03 21:40 -16.67640 -39.21294 38035 ft 431 kts 211°
2026-05-03 21:41 -16.72907 -39.24261 38032 ft 431 kts 211°
2026-05-03 21:41 -16.78226 -39.27256 38041 ft 431 kts 211°
2026-05-03 21:42 -16.83505 -39.30230 38046 ft 431 kts 211°
2026-05-03 21:42 -16.88803 -39.33217 38043 ft 431 kts 211°
2026-05-03 21:43 -16.94069 -39.36187 38051 ft 431 kts 211°
2026-05-03 21:43 -16.99331 -39.39156 38060 ft 429 kts 211°
2026-05-03 21:44 -17.04596 -39.42127 38061 ft 429 kts 211°
2026-05-03 21:44 -17.09860 -39.45101 38062 ft 430 kts 212°
2026-05-03 21:45 -17.15101 -39.48065 38059 ft 430 kts 212°
2026-05-03 21:45 -17.20409 -39.51070 38056 ft 430 kts 212°
2026-05-03 21:46 -17.25694 -39.54063 38060 ft 430 kts 212°
2026-05-03 21:46 -17.30941 -39.57032 38055 ft 430 kts 212°
2026-05-03 21:47 -17.36218 -39.60023 38055 ft 430 kts 212°
2026-05-03 21:47 -17.41465 -39.63001 38060 ft 430 kts 212°
2026-05-03 21:48 -17.46766 -39.66014 38068 ft 431 kts 212°
2026-05-03 21:48 -17.52046 -39.69013 38067 ft 430 kts 212°
2026-05-03 21:49 -17.57316 -39.72007 38065 ft 430 kts 212°
2026-05-03 21:49 -17.62570 -39.74994 38066 ft 430 kts 212°
2026-05-03 21:50 -17.67844 -39.77996 38066 ft 431 kts 212°
2026-05-03 21:50 -17.73105 -39.80993 38066 ft 430 kts 212°
2026-05-03 21:51 -17.78380 -39.84001 38069 ft 432 kts 212°
2026-05-03 21:51 -17.83677 -39.87024 38071 ft 432 kts 212°
2026-05-03 21:52 -17.88957 -39.90038 38072 ft 431 kts 212°
2026-05-03 21:52 -17.94220 -39.93044 38067 ft 431 kts 213°
2026-05-03 21:53 -17.99531 -39.96078 38075 ft 430 kts 213°
2026-05-03 21:53 -18.04793 -39.99078 38080 ft 431 kts 213°
2026-05-03 21:54 -18.10027 -40.02048 38078 ft 431 kts 213°
2026-05-03 21:54 -18.15352 -40.05068 38079 ft 432 kts 212°
2026-05-03 21:55 -18.20671 -40.08086 38078 ft 433 kts 213°
2026-05-03 21:55 -18.25973 -40.11097 38078 ft 430 kts 213°
2026-05-03 21:56 -18.31259 -40.14103 38077 ft 431 kts 213°
2026-05-03 21:56 -18.36547 -40.17112 38073 ft 431 kts 213°
2026-05-03 21:57 -18.41798 -40.20106 38078 ft 431 kts 213°
2026-05-03 21:57 -18.47089 -40.23125 38075 ft 431 kts 213°
2026-05-03 21:58 -18.52369 -40.26137 38076 ft 430 kts 213°
2026-05-03 21:58 -18.57628 -40.29141 38078 ft 430 kts 213°
2026-05-03 21:59 -18.62889 -40.32145 38078 ft 428 kts 213°
2026-05-03 21:59 -18.68127 -40.35141 38084 ft 429 kts 213°
2026-05-03 22:00 -18.73386 -40.38151 38085 ft 429 kts 213°
2026-05-03 22:00 -18.78642 -40.41159 38089 ft 429 kts 213°
2026-05-03 22:01 -18.83873 -40.44155 38087 ft 427 kts 213°
2026-05-03 22:01 -18.89114 -40.47161 38093 ft 428 kts 213°
2026-05-03 22:02 -18.94358 -40.50170 38093 ft 428 kts 213°
2026-05-03 22:02 -18.99601 -40.53181 38094 ft 428 kts 213°
2026-05-03 22:03 -19.04811 -40.56176 38099 ft 429 kts 213°
2026-05-03 22:03 -19.10032 -40.59177 38100 ft 427 kts 213°
2026-05-03 22:04 -19.15214 -40.62159 38103 ft 427 kts 213°
2026-05-03 22:04 -19.20534 -40.65221 38105 ft 426 kts 213°
2026-05-03 22:05 -19.25759 -40.68232 38102 ft 426 kts 213°
2026-05-03 22:05 -19.31013 -40.71264 38102 ft 426 kts 213°
2026-05-03 22:06 -19.36210 -40.74265 38107 ft 425 kts 213°
2026-05-03 22:06 -19.41421 -40.77275 38106 ft 424 kts 214°
2026-05-03 22:07 -19.46619 -40.80281 38112 ft 425 kts 213°
2026-05-03 22:07 -19.51814 -40.83284 38114 ft 425 kts 214°
2026-05-03 22:08 -19.57031 -40.86302 38132 ft 425 kts 214°
2026-05-03 22:08 -19.62208 -40.89305 38149 ft 425 kts 214°
2026-05-03 22:09 -19.67360 -40.92302 38165 ft 423 kts 214°
2026-05-03 22:10 -19.75132 -40.96828 38200 ft 424 kts 214°
2026-05-03 22:10 -19.80305 -40.99840 38209 ft 423 kts 214°
2026-05-03 22:11 -19.85461 -41.02846 38204 ft 424 kts 214°
2026-05-03 22:11 -19.90649 -41.05880 38192 ft 424 kts 214°
2026-05-03 22:12 -19.95787 -41.08898 38186 ft 422 kts 214°
2026-05-03 22:12 -20.00953 -41.11939 38185 ft 422 kts 214°
2026-05-03 22:13 -20.06101 -41.14969 38190 ft 422 kts 214°
2026-05-03 22:13 -20.11256 -41.18004 38195 ft 423 kts 214°
2026-05-03 22:14 -20.16340 -41.20998 38201 ft 423 kts 214°
2026-05-03 22:14 -20.21483 -41.24030 38207 ft 422 kts 214°
2026-05-03 22:15 -20.26625 -41.27063 38209 ft 421 kts 214°
2026-05-03 22:15 -20.31788 -41.30112 38201 ft 421 kts 214°
2026-05-03 22:16 -20.36900 -41.33134 38196 ft 423 kts 214°
2026-05-03 22:16 -20.42062 -41.36185 38189 ft 422 kts 214°
2026-05-03 22:17 -20.47196 -41.39224 38181 ft 422 kts 215°
2026-05-03 22:17 -20.52341 -41.42265 38174 ft 422 kts 214°
2026-05-03 22:18 -20.57492 -41.45291 38169 ft 421 kts 214°
2026-05-03 22:18 -20.62636 -41.48311 38164 ft 422 kts 214°
2026-05-03 22:19 -20.67764 -41.51324 38165 ft 422 kts 214°
2026-05-03 22:19 -20.72928 -41.54363 38164 ft 420 kts 215°
2026-05-03 22:20 -20.78036 -41.57371 38171 ft 421 kts 215°
2026-05-03 22:20 -20.83203 -41.60419 38178 ft 421 kts 215°
2026-05-03 22:21 -20.88317 -41.63437 38188 ft 420 kts 215°
2026-05-03 22:21 -20.93446 -41.66467 38192 ft 420 kts 215°
2026-05-03 22:22 -20.98563 -41.69490 38190 ft 417 kts 215°
2026-05-03 22:22 -21.03641 -41.72494 38183 ft 416 kts 215°
2026-05-03 22:23 -21.08664 -41.75472 38178 ft 418 kts 215°
2026-05-03 22:23 -21.13807 -41.78519 38176 ft 416 kts 215°
2026-05-03 22:24 -21.18906 -41.81543 38175 ft 417 kts 215°
2026-05-03 22:24 -21.23987 -41.84558 38174 ft 417 kts 215°
2026-05-03 22:25 -21.29098 -41.87592 38173 ft 417 kts 216°
2026-05-03 22:25 -21.34158 -41.90600 38177 ft 416 kts 216°
2026-05-03 22:26 -21.39211 -41.93607 38181 ft 415 kts 216°
2026-05-03 22:26 -21.44261 -41.96614 38184 ft 414 kts 216°
2026-05-03 22:27 -21.49323 -41.99632 37676 ft 418 kts 216°
2026-05-03 22:27 -21.51856 -42.01141 36802 ft 420 kts 216°
2026-05-03 22:27 -21.54434 -42.02679 35918 ft 422 kts 216°
2026-05-03 22:27 -21.56986 -42.04200 35048 ft 424 kts 216°
2026-05-03 22:28 -21.59574 -42.05746 34176 ft 426 kts 216°
2026-05-03 22:28 -21.62186 -42.07309 33302 ft 429 kts 216°
2026-05-03 22:28 -21.64803 -42.08876 32485 ft 431 kts 216°
2026-05-03 22:28 -21.67439 -42.10456 31727 ft 433 kts 216°
2026-05-03 22:29 -21.70046 -42.12020 30982 ft 435 kts 216°
2026-05-03 22:29 -21.72731 -42.13631 30219 ft 436 kts 216°
2026-05-03 22:29 -21.75373 -42.15213 29471 ft 437 kts 216°
2026-05-03 22:29 -21.78048 -42.16814 28721 ft 438 kts 215°
2026-05-03 22:30 -21.80711 -42.18407 27987 ft 440 kts 215°
2026-05-03 22:30 -21.83388 -42.20012 27254 ft 442 kts 214°
2026-05-03 22:30 -21.86094 -42.21634 26520 ft 444 kts 214°
2026-05-03 22:30 -21.88776 -42.23247 25793 ft 446 kts 214°
2026-05-03 22:31 -21.91495 -42.24885 25059 ft 447 kts 214°
2026-05-03 22:31 -21.94175 -42.26500 24336 ft 442 kts 213°
2026-05-03 22:31 -21.96843 -42.28106 23614 ft 435 kts 213°
2026-05-03 22:31 -21.99468 -42.29688 22910 ft 430 kts 213°
2026-05-03 22:32 -22.02070 -42.31258 22168 ft 424 kts 213°
2026-05-03 22:32 -22.04573 -42.32767 21474 ft 408 kts 213°
2026-05-03 22:32 -22.06997 -42.34232 20901 ft 391 kts 213°
2026-05-03 22:32 -22.09325 -42.35643 20383 ft 374 kts 213°
2026-05-03 22:33 -22.11550 -42.36995 19886 ft 359 kts 213°
2026-05-03 22:33 -22.13679 -42.38293 19417 ft 348 kts 213°
2026-05-03 22:33 -22.15808 -42.39596 18949 ft 360 kts 213°
2026-05-03 22:33 -22.18002 -42.40947 18442 ft 359 kts 213°
2026-05-03 22:34 -22.20141 -42.42258 17956 ft 347 kts 213°
2026-05-03 22:34 -22.22267 -42.43556 17484 ft 354 kts 212°
2026-05-03 22:34 -22.24429 -42.44878 16989 ft 358 kts 212°
2026-05-03 22:34 -22.26582 -42.46188 16480 ft 348 kts 212°
2026-05-03 22:35 -22.28674 -42.47457 16000 ft 344 kts 212°
2026-05-03 22:35 -22.30805 -42.48753 15503 ft 354 kts 211°
2026-05-03 22:35 -22.32910 -42.50034 15002 ft 347 kts 211°
2026-05-03 22:35 -22.35010 -42.51309 14517 ft 337 kts 210°
2026-05-03 22:36 -22.37067 -42.52559 14043 ft 347 kts 210°
2026-05-03 22:36 -22.39193 -42.53854 13536 ft 345 kts 210°
2026-05-03 22:36 -22.41254 -42.55108 13044 ft 333 kts 210°
2026-05-03 22:36 -22.43272 -42.56337 12581 ft 339 kts 210°
2026-05-03 22:37 -22.45350 -42.57603 12086 ft 339 kts 210°
2026-05-03 22:37 -22.47374 -42.58836 11607 ft 327 kts 210°
2026-05-03 22:37 -22.49341 -42.60033 11159 ft 330 kts 210°
2026-05-03 22:37 -22.51372 -42.61271 10726 ft 332 kts 210°
2026-05-03 22:38 -22.53328 -42.62463 10509 ft 312 kts 210°
2026-05-03 22:38 -22.55157 -42.63577 10410 ft 290 kts 210°
2026-05-03 22:38 -22.56930 -42.64657 10322 ft 295 kts 210°
2026-05-03 22:38 -22.58746 -42.65765 10043 ft 292 kts 211°
2026-05-03 22:39 -22.60489 -42.66830 9633 ft 284 kts 211°
2026-05-03 22:39 -22.62205 -42.67881 9269 ft 275 kts 210°
2026-05-03 22:39 -22.63840 -42.68884 8942 ft 273 kts 211°
2026-05-03 22:39 -22.65382 -42.70099 8567 ft 276 kts 226°
2026-05-03 22:40 -22.66426 -42.71821 8223 ft 268 kts 249°
2026-05-03 22:40 -22.66927 -42.73738 7890 ft 260 kts 258°
2026-05-03 22:40 -22.67284 -42.75660 7572 ft 268 kts 257°
2026-05-03 22:40 -22.67708 -42.77616 7222 ft 266 kts 255°
2026-05-03 22:41 -22.68189 -42.79527 6974 ft 253 kts 253°
2026-05-03 22:41 -22.68672 -42.81349 6781 ft 261 kts 253°
2026-05-03 22:41 -22.69178 -42.83256 6443 ft 263 kts 253°
2026-05-03 22:41 -22.69669 -42.85141 6108 ft 259 kts 253°
2026-05-03 22:42 -22.70150 -42.86997 5786 ft 251 kts 252°
2026-05-03 22:42 -22.70636 -42.88850 5502 ft 259 kts 252°
2026-05-03 22:42 -22.71112 -42.90672 5373 ft 244 kts 252°
2026-05-03 22:42 -22.71559 -42.92387 5315 ft 232 kts 252°
2026-05-03 22:43 -22.72004 -42.94080 5291 ft 237 kts 252°
2026-05-03 22:43 -22.72462 -42.95831 5002 ft 240 kts 252°
2026-05-03 22:43 -22.72909 -42.97541 4591 ft 237 kts 252°
2026-05-03 22:43 -22.73355 -42.99250 4263 ft 235 kts 252°
2026-05-03 22:44 -22.73790 -43.00921 3948 ft 227 kts 251°
2026-05-03 22:44 -22.74208 -43.02529 3626 ft 218 kts 251°
2026-05-03 22:44 -22.74612 -43.04072 3340 ft 209 kts 250°
2026-05-03 22:44 -22.75002 -43.05570 3053 ft 203 kts 250°
2026-05-03 22:45 -22.75380 -43.07018 2788 ft 198 kts 250°
2026-05-03 22:45 -22.75745 -43.08419 2522 ft 187 kts 250°
2026-05-03 22:45 -22.76087 -43.09734 2280 ft 176 kts 250°
2026-05-03 22:45 -22.76405 -43.10966 2040 ft 163 kts 251°
2026-05-03 22:46 -22.76702 -43.12113 1871 ft 159 kts 250°
2026-05-03 22:46 -22.77002 -43.13254 1614 ft 156 kts 250°
2026-05-03 22:46 -22.77296 -43.14379 1426 ft 157 kts 251°
2026-05-03 22:46 -22.77587 -43.15512 1215 ft 154 kts 252°
2026-05-03 22:47 -22.77848 -43.16637 1014 ft 155 kts 257°
2026-05-03 22:47 -22.78125 -43.17770 768 ft 156 kts 252°
2026-05-03 22:47 -22.78462 -43.18891 576 ft 155 kts 253°
2026-05-03 22:47 -22.78751 -43.20014 384 ft 156 kts 256°
2026-05-03 22:48 -22.79049 -43.21146 205 ft 154 kts 254°
2026-05-03 22:48 -22.79340 -43.22271 43 ft 154 kts 256°
2026-05-03 22:48 -22.79597 -43.23258 27 ft 110 kts 255°
2026-05-03 22:48 -22.79747 -43.23818 25 ft 42 kts 248°
2026-05-03 22:49 -22.79881 -43.24051 24 ft 29 kts 234°
2026-05-03 22:49 -22.79997 -43.24222 24 ft 27 kts 233°
2026-05-03 22:49 -22.80096 -43.24369 24 ft 20 kts 234°
2026-05-03 22:49 -22.80163 -43.24491 24 ft 18 kts 255°
2026-05-03 22:50 -22.80196 -43.24623 24 ft 18 kts 254°
2026-05-03 22:50 -22.80231 -43.24756 24 ft 17 kts 254°
2026-05-03 22:50 -22.80264 -43.24883 24 ft 17 kts 255°
2026-05-03 22:50 -22.80297 -43.25007 24 ft 16 kts 252°
2026-05-03 22:51 -22.80328 -43.25125 24 ft 16 kts 255°
2026-05-03 22:51 -22.80361 -43.25241 24 ft 16 kts 249°
2026-05-03 22:51 -22.80416 -43.25355 24 ft 16 kts 237°
2026-05-03 22:51 -22.80488 -43.25455 24 ft 16 kts 226°
2026-05-03 22:52 -22.80573 -43.25532 24 ft 15 kts 217°
2026-05-03 22:52 -22.80607 -43.25558 24 ft 1 kts 216°
2026-05-03 22:52 -22.80617 -43.25566 22 ft 0 kts 216°